• In Hungary
  • List of Countries
  • For 7 days
  • Water Temperature
  • Satellite Maps
  • Weather Map
  • News
  • Weather Widgets
  • user-avatar
    Login

    Hourly Weather Elizavetino

    Today, 21 July, Saturday

    Time Temperature Precipitation Wind Pressure Humidity
    00:00 +19°C° 0 mm 3 mps 731 mmHg 95%
    01:00 +18°C° 0 mm 3 mps 731 mmHg 96%
    02:00 +18°C° 0.1 mm 4 mps 731 mmHg 96%
    03:00 +18°C° 0.1 mm 4 mps 731 mmHg 96%
    04:00 +18°C° 0.1 mm 4 mps 731 mmHg 96%
    05:00 +17°C° 0.4 mm 5 mps 732 mmHg 95%
    06:00 +17°C° 0.4 mm 5 mps 732 mmHg 94%
    07:00 +19°C° 0.4 mm 5 mps 732 mmHg 93%
    08:00 +20°C° 0.1 mm 5 mps 732 mmHg 90%
    09:00 +20°C° 0.1 mm 5 mps 733 mmHg 88%
    10:00 +21°C° 0.1 mm 5 mps 733 mmHg 85%
    11:00 +22°C° 0.3 mm 6 mps 733 mmHg 83%
    12:00 +22°C° 0.3 mm 6 mps 733 mmHg 81%
    13:00 +22°C° 0.3 mm 6 mps 733 mmHg 79%
    14:00 +22°C° 0.5 mm 6 mps 733 mmHg 80%
    15:00 +22°C° 0.5 mm 6 mps 733 mmHg 81%
    16:00 +22°C° 0.5 mm 6 mps 733 mmHg 82%
    17:00 +21°C° 0.1 mm 5 mps 733 mmHg 83%
    18:00 +20°C° 0.1 mm 5 mps 733 mmHg 84%
    19:00 +20°C° 0.1 mm 5 mps 733 mmHg 85%
    20:00 +19°C° 0 mm 5 mps 733 mmHg 84%
    21:00 +19°C° 0 mm 5 mps 733 mmHg 83%
    22:00 +17°C° 0 mm 6 mps 733 mmHg 82%
    23:00 +17°C° 0 mm 6 mps 733 mmHg 81%

    Tomorrow, 22 July, Sunday

    Time Temperature Precipitation Wind Pressure Humidity
    00:00 +16°C° 0 mm 6 mps 733 mmHg 79%
    01:00 +16°C° 0 mm 6 mps 733 mmHg 78%
    02:00 +16°C° 0 mm 6 mps 733 mmHg 77%
    03:00 +15°C° 0 mm 6 mps 733 mmHg 76%
    04:00 +15°C° 0 mm 6 mps 733 mmHg 75%
    05:00 +15°C° 0 mm 6 mps 734 mmHg 76%
    06:00 +15°C° 0 mm 6 mps 734 mmHg 78%
    07:00 +15°C° 0 mm 7 mps 734 mmHg 79%
    08:00 +16°C° 0 mm 7 mps 734 mmHg 78%
    09:00 +17°C° 0 mm 7 mps 734 mmHg 76%
    10:00 +18°C° 0 mm 7 mps 734 mmHg 74%
    11:00 +20°C° 0 mm 7 mps 734 mmHg 72%
    12:00 +21°C° 0 mm 7 mps 734 mmHg 70%
    13:00 +21°C° 0 mm 7 mps 735 mmHg 67%
    14:00 +22°C° 0 mm 7 mps 735 mmHg 66%
    15:00 +22°C° 0 mm 7 mps 735 mmHg 65%
    16:00 +22°C° 0 mm 6 mps 735 mmHg 64%
    17:00 +21°C° 0 mm 6 mps 735 mmHg 68%
    18:00 +21°C° 0 mm 5 mps 735 mmHg 71%
    19:00 +20°C° 0 mm 4 mps 735 mmHg 75%
    20:00 +19°C° 0 mm 5 mps 735 mmHg 73%
    21:00 +17°C° 0 mm 5 mps 735 mmHg 72%
    22:00 +16°C° 0 mm 5 mps 736 mmHg 71%
    23:00 +15°C° 0 mm 5 mps 736 mmHg 71%

    Day after tomorrow, 23 July, Monday

    Time Temperature Precipitation Wind Pressure Humidity
    00:00 +14°C° 0 mm 5 mps 736 mmHg 72%
    01:00 +13°C° 0 mm 5 mps 736 mmHg 72%
    02:00 +13°C° 0 mm 5 mps 737 mmHg 74%
    03:00 +12°C° 0 mm 5 mps 737 mmHg 75%
    04:00 +10°C° 0 mm 5 mps 737 mmHg 77%
    05:00 +12°C° 0 mm 5 mps 737 mmHg 77%
    06:00 +12°C° 0 mm 5 mps 737 mmHg 77%
    07:00 +13°C° 0 mm 6 mps 738 mmHg 77%
    08:00 +14°C° 0 mm 6 mps 738 mmHg 74%
    09:00 +15°C° 0 mm 6 mps 738 mmHg 71%
    10:00 +17°C° 0 mm 6 mps 738 mmHg 68%
    11:00 +17°C° 0 mm 6 mps 738 mmHg 66%
    12:00 +19°C° 0 mm 6 mps 738 mmHg 64%
    13:00 +20°C° 0 mm 6 mps 738 mmHg 62%
    14:00 +20°C° 0 mm 5 mps 738 mmHg 62%
    15:00 +21°C° 0 mm 5 mps 738 mmHg 61%
    16:00 +21°C° 0 mm 5 mps 738 mmHg 61%
    17:00 +21°C° 0 mm 4 mps 738 mmHg 65%
    18:00 +20°C° 0 mm 3 mps 738 mmHg 70%
    19:00 +20°C° 0 mm 3 mps 738 mmHg 75%
    20:00 +18°C° 0 mm 3 mps 738 mmHg 76%
    21:00 +17°C° 0 mm 3 mps 739 mmHg 78%
    22:00 +14°C° 0 mm 3 mps 739 mmHg 79%
    23:00 +14°C° 0 mm 3 mps 739 mmHg 79%

    24 July, Tuesday

    Time Temperature Precipitation Wind Pressure Humidity
    00:00 +13°C° 0 mm 3 mps 739 mmHg 79%
    01:00 +13°C° 0 mm 3 mps 739 mmHg 79%
    02:00 +12°C° 0 mm 3 mps 739 mmHg 80%
    03:00 +12°C° 0 mm 3 mps 739 mmHg 81%
    04:00 +11°C° 0 mm 3 mps 739 mmHg 82%
    05:00 +12°C° 0 mm 3 mps 740 mmHg 80%
    06:00 +13°C° 0 mm 3 mps 740 mmHg 79%
    07:00 +14°C° 0 mm 3 mps 740 mmHg 77%
    08:00 +17°C° 0 mm 3 mps 740 mmHg 73%
    09:00 +18°C° 0 mm 4 mps 741 mmHg 69%
    10:00 +20°C° 0 mm 4 mps 741 mmHg 65%
    11:00 +21°C° 0 mm 4 mps 741 mmHg 63%
    12:00 +22°C° 0 mm 4 mps 741 mmHg 60%
    13:00 +23°C° 0 mm 4 mps 741 mmHg 58%
    14:00 +23°C° 0 mm 4 mps 741 mmHg 59%
    15:00 +23°C° 0 mm 4 mps 741 mmHg 59%
    16:00 +25°C° 0 mm 3 mps 741 mmHg 60%
    17:00 +24°C° 0 mm 3 mps 740 mmHg 64%
    18:00 +23°C° 0 mm 2 mps 740 mmHg 69%
    19:00 +23°C° 0 mm 2 mps 740 mmHg 74%
    20:00 +20°C° 0 mm 2 mps 740 mmHg 77%
    21:00 +19°C° 0 mm 2 mps 740 mmHg 81%
    22:00 +17°C° 0 mm 2 mps 740 mmHg 85%
    23:00 +17°C° 0 mm 2 mps 740 mmHg 85%

    25 July, Wednesday

    Time Temperature Precipitation Wind Pressure Humidity
    00:00 +17°C° 0 mm 2 mps 741 mmHg 85%
    01:00 +16°C° 0 mm 2 mps 741 mmHg 86%
    02:00 +16°C° 0 mm 2 mps 741 mmHg 86%
    03:00 +16°C° 0 mm 2 mps 741 mmHg 87%
    04:00 +16°C° 0 mm 2 mps 741 mmHg 88%
    05:00 +17°C° 0 mm 2 mps 741 mmHg 86%
    06:00 +18°C° 0 mm 2 mps 741 mmHg 83%
    07:00 +20°C° 0 mm 1 mps 742 mmHg 81%
    08:00 +21°C° 0 mm 2 mps 742 mmHg 76%
    09:00 +24°C° 0 mm 2 mps 742 mmHg 71%
    10:00 +25°C° 0 mm 2 mps 742 mmHg 66%
    11:00 +26°C° 0 mm 2 mps 742 mmHg 62%
    12:00 +27°C° 0 mm 2 mps 742 mmHg 58%
    13:00 +28°C° 0 mm 2 mps 742 mmHg 54%
    14:00 +28°C° 0 mm 2 mps 742 mmHg 54%
    15:00 +28°C° 0 mm 2 mps 742 mmHg 54%
    16:00 +28°C° 0 mm 2 mps 742 mmHg 54%
    17:00 +27°C° 0 mm 2 mps 741 mmHg 59%
    18:00 +27°C° 0 mm 2 mps 741 mmHg 65%
    19:00 +26°C° 0 mm 2 mps 741 mmHg 70%
    20:00 +24°C° 0 mm 2 mps 741 mmHg 74%
    21:00 +22°C° 0 mm 1 mps 741 mmHg 77%
    22:00 +21°C° 0 mm 1 mps 741 mmHg 80%
    23:00 +20°C° 0 mm 1 mps 741 mmHg 81%

    26 July, Thursday

    Time Temperature Precipitation Wind Pressure Humidity
    00:00 +20°C° 0 mm 1 mps 741 mmHg 82%
    01:00 +20°C° 0 mm 1 mps 742 mmHg 83%
    02:00 +19°C° 0 mm 1 mps 742 mmHg 85%
    03:00 +19°C° 0 mm 1 mps 742 mmHg 86%
    04:00 +19°C° 0 mm 1 mps 742 mmHg 88%
    05:00 +20°C° 0 mm 1 mps 742 mmHg 86%
    06:00 +21°C° 0 mm 1 mps 742 mmHg 83%
    07:00 +22°C° 0 mm 1 mps 742 mmHg 81%
    08:00 +23°C° 0 mm 2 mps 743 mmHg 76%
    09:00 +25°C° 0 mm 2 mps 743 mmHg 71%
    10:00 +26°C° 0 mm 3 mps 743 mmHg 66%
    11:00 +27°C° 0.2 mm 3 mps 743 mmHg 62%
    12:00 +28°C° 0.2 mm 3 mps 743 mmHg 57%
    13:00 +28°C° 0.2 mm 3 mps 743 mmHg 53%
    14:00 +28°C° 0 mm 3 mps 743 mmHg 54%
    15:00 +28°C° 0 mm 3 mps 743 mmHg 54%
    16:00 +28°C° 0 mm 3 mps 742 mmHg 54%
    17:00 +28°C° 0 mm 3 mps 742 mmHg 59%
    18:00 +27°C° 0 mm 2 mps 742 mmHg 64%
    19:00 +26°C° 0 mm 2 mps 742 mmHg 69%
    20:00 +24°C° 0 mm 1 mps 742 mmHg 71%
    21:00 +23°C° 0 mm 1 mps 742 mmHg 74%
    22:00 +21°C° 0 mm 1 mps 742 mmHg 76%
    23:00 +21°C° 0 mm 1 mps 742 mmHg 77%
    Show more